EW2910 Weather Reports


Display with metric or nautical units.
time (UTC)temp
F
wind
direction
speed
MPH
gust
MPH
rain 1hr
in
rain 24hr
in
rain mn
in
humidity
%
barometer
mb
20260831024600 78 0 0.0 0.0 0.00 0.00 0.00 93 1017.6
20260831023100 78 0 0.0 0.0 0.00 0.00 0.00 93 1017.5
20260831021602 78 0 0.0 0.0 0.00 0.00 0.00 93 1017.6
20260831014600 78 0 0.0 0.0 0.00 0.00 0.00 92 1017.7
20260831013102 78 0 0.0 0.0 0.00 0.00 0.00 91 1017.6
20260831011602 79 0 0.0 0.0 0.00 0.00 0.00 91 1017.5
20260831010119 79 0 0.0 0.0 0.00 0.00 0.00 92 1017.6
20260831004612 79 0 0.0 0.0 0.00 0.01 0.00 92 1017.3
20260831003109 79 0 0.0 4.0 0.00 0.01 0.00 91 1017.1
20260831001604 79 0 0.0 4.0 0.00 0.01 0.00 91 1017.0
20260831000110 80 0 0.0 4.0 0.00 0.01 0.00 89 1017.1
20260830234615 81 0 0.0 1.0 0.00 0.05 0.00 86 1016.9
20260830233101 81 0 0.0 1.0 0.00 0.05 0.00 85 1016.9
20260830231607 82 0 0.0 1.0 0.00 0.05 0.00 84 1016.8
20260830230059 83 0 0.0 0.0 0.00 0.05 0.00 82 1016.6
20260830224604 83 0 0.0 3.0 0.00 0.08 0.00 81 1016.7
20260830223103 83 0 0.0 1.0 0.00 0.08 0.00 81 1016.7
20260830221600 84 0 0.0 5.0 0.00 0.08 0.00 80 1016.7
20260830220106 84 93 0.0 6.0 0.00 0.08 0.00 78 1016.3
20260830214607 84 0 2.0 7.0 0.00 0.08 0.00 80 1016.6
20260830213107 84 0 0.0 6.0 0.00 0.08 0.00 81 1016.4
20260830211608 83 60 4.0 9.0 0.00 0.08 0.00 82 1016.3
20260830210105 82 0 3.0 8.0 0.00 0.08 0.00 83 1016.4
20260830204602 82 104 2.0 9.0 0.00 0.08 0.00 82 1016.5
20260830203101 82 77 4.0 8.0 0.00 0.08 0.00 80 1016.2
20260830201605 83 96 4.0 9.0 0.00 0.08 0.00 79 1016.5
20260830194602 84 100 6.0 12.0 0.00 0.08 0.00 78 1016.6
20260830193106 84 83 6.0 14.0 0.00 0.08 0.00 79 1016.7
20260830191603 86 23 6.0 12.0 0.00 0.08 0.00 78 1016.8
20260830184608 92 0 2.0 12.0 0.00 0.08 0.00 64 1016.7
20260830183103 92 136 1.0 10.0 0.00 0.08 0.00 63 1016.8
20260830181600 93 176 1.0 7.0 0.00 0.08 0.00 65 1016.8
20260830180108 93 0 0.0 7.0 0.00 0.08 0.00 64 1017.2
20260830174617 92 0 2.0 7.0 0.00 0.08 0.00 66 1017.2
20260830173108 90 108 2.0 8.0 0.00 0.08 0.00 68 1017.5
20260830171609 90 117 3.0 7.0 0.00 0.08 0.00 70 1017.7
20260830170110 89 0 0.0 4.0 0.00 0.08 0.00 73 1017.8
20260830164604 88 68 4.0 10.0 0.00 0.08 0.00 77 1018.0
20260830163107 90 60 2.0 8.0 0.00 0.08 0.00 72 1018.2
20260830161622 89 110 0.0 5.0 0.00 0.08 0.00 75 1018.2
20260830160104 88 153 3.0 7.0 0.00 0.08 0.00 76 1018.3
20260830154618 88 274 0.0 4.0 0.00 0.08 0.00 77 1018.3
20260830153104 87 134 0.0 6.0 0.00 0.08 0.00 80 1018.6
20260830151602 87 0 1.0 6.0 0.00 0.08 0.00 81 1018.7
20260830150121 85 0 0.0 2.0 0.00 0.08 0.00 86 1018.8
20260830144607 85 0 0.0 2.0 0.00 0.08 0.00 87 1018.8
20260830143105 83 43 3.0 6.0 0.00 0.08 0.00 89 1018.8
20260830141608 83 0 0.0 6.0 0.00 0.08 0.00 88 1019.0
20260830140109 81 50 0.0 3.0 0.00 0.08 0.00 93 1018.8
20260830134604 80 0 0.0 4.0 0.00 0.08 0.00 94 1018.9
20260830133103 79 0 1.0 5.0 0.00 0.08 0.00 96 1018.8
20260830131608 78 47 0.0 1.0 0.00 0.08 0.00 98 1018.8
20260830130110 77 9 1.0 4.0 0.00 0.08 0.00 98 1018.7
20260830124605 77 0 1.0 4.0 0.00 0.08 0.00 98 1018.6
20260830123104 76 19 0.0 3.0 0.00 0.08 0.00 99 1018.6
20260830121602 76 0 0.0 3.0 0.00 0.08 0.00 99 1018.3
20260830120104 76 13 0.0 3.0 0.00 0.08 0.00 99 1018.0
20260830114614 75 0 0.0 1.0 0.00 0.08 0.00 99 1017.8
20260830113105 74 0 0.0 0.0 0.00 0.08 0.00 99 1017.6
20260830111602 74 0 0.0 1.0 0.00 0.08 0.00 99 1017.5
20260830110104 74 0 0.0 1.0 0.00 0.08 0.00 99 1017.2
20260830104604 74 0 0.0 1.0 0.00 0.08 0.00 99 1017.1
20260830103104 73 0 0.0 0.0 0.00 0.08 0.00 99 1016.9
20260830101602 73 0 0.0 0.0 0.00 0.08 0.00 98 1016.8
20260830094605 73 0 0.0 1.0 0.00 0.08 0.00 98 1016.6
20260830093101 73 0 0.0 1.0 0.00 0.08 0.00 98 1016.6
20260830091601 73 0 0.0 1.0 0.00 0.08 0.00 98 1016.7
20260830090122 73 0 0.0 0.0 0.00 0.08 0.00 98 1016.8
20260830084614 73 0 0.0 0.0 0.00 0.08 0.00 98 1016.6
20260830083106 73 0 0.0 0.0 0.00 0.08 0.00 98 1016.8
20260830081602 73 0 0.0 1.0 0.00 0.08 0.00 98 1017.0
20260830080103 73 0 0.0 0.0 0.00 0.08 0.00 98 1017.3
20260830074626 73 0 0.0 0.0 0.00 0.08 0.00 98 1017.3
20260830073102 73 0 0.0 0.0 0.00 0.08 0.00 98 1017.4
20260830071606 73 0 0.0 0.0 0.00 0.08 0.00 98 1017.5
20260830070104 73 0 0.0 0.0 0.00 0.08 0.00 98 1017.6
20260830064604 73 0 0.0 0.0 0.00 0.08 0.00 98 1017.7
20260830063100 73 0 0.0 0.0 0.00 0.08 0.00 98 1017.7
20260830061605 72 0 0.0 0.0 0.00 0.08 0.00 98 1017.6
20260830060107 73 0 0.0 0.0 0.00 0.08 0.00 98 1017.5
20260830054622 73 0 0.0 0.0 0.00 0.08 0.00 97 1017.8
20260830053101 73 0 0.0 2.0 0.00 0.08 0.00 97 1017.9
20260830051608 73 0 0.0 3.0 0.00 0.08 0.00 97 1018.1
20260830050107 73 0 0.0 1.0 0.00 0.08 0.00 97 1018.2
20260830044615 74 0 0.0 3.0 0.00 0.08 0.00 97 1018.0
20260830043100 74 0 0.0 1.0 0.00 0.08 0.00 97 1018.3
20260830041657 74 0 0.0 1.0 0.00 0.08 0.00 97 1018.4
20260830040104 75 0 0.0 0.0 0.00 0.08 0.00 97 1018.2
20260830034602 75 0 0.0 0.0 0.00 0.08 0.08 97 1018.0
20260830033109 75 0 0.0 0.0 0.00 0.08 0.08 97 1018.1
20260830031602 75 0 0.0 0.0 0.00 0.08 0.08 96 1018.1
20260830030138 75 0 0.0 0.0 0.00 0.08 0.08 96 1018.2